Meteo Giornale » Osservazioni meteo Stati Uniti (USA) » Norfolk Stefan Memorial
ore: 15:56 - Osservazioni Meteo Norfolk Stefan Memorial
Lat. 41° 58' N Lon. 97° 26' W Alt. 479 metri s.l.m.
30 °C
Sereno
Temp. 24 Ore
20 °C
33 °C
Sud-Est
9.3 Km/h
Dew point 20 °C
Umidità 55 %
Visibilità 10 Km
Il sole sorge alle ore 06:54
Il sole tramonta alle ore 20:05
| Data e Ora | Cielo e Fenomeni | T °C | DP °C | Um. % | Pres. hPa | Vis. km | Vento km/h | |
|---|---|---|---|---|---|---|---|---|
| Oggi h: 15:56 | Sereno | 30 | 20 | 55 | 1014 | 10 | SE 9.3 | |
| Oggi h: 14:56 | Sereno | 29 | 19 | 54 | 1014 | 10 | N 7.4 | |
| Oggi h: 13:56 | Sereno | 28 | 19 | 58 | 1015 | 10 | E/NE 7.4 | |
| Oggi h: 12:56 | Sereno | 27 | 19 | 61 | 1014 | 10 | N/NO 16.7 | |
| Oggi h: 11:56 | Sereno | 27 | 19 | 61 | 1014 | 10 | NO 16.7 | |
| Oggi h: 10:56 | Sereno | 24 | 18 | 69 | 1014 | 10 | N/NO 20.3 | |
| Oggi h: 09:56 | Nuvoloso | 21 | 18 | 82 | 1015 | 10 | NO 14.8 | |
| Oggi h: 08:56 | Nuvoloso | 21 | 18 | 82 | 1015 | 10 | O/NO 11.1 | |
| Oggi h: 07:56 | Molto Nuvoloso | 21 | 18 | 82 | 1014 | 10 | O/NO 13 | |
| Oggi h: 06:56 | Sereno | 20 | 18 | 88 | 1012 | 10 | O/NO 13 | |
| Oggi h: 05:56 | Sereno | 21 | 18 | 82 | 1012 | 10 | O/NO 16.7 | |
| Oggi h: 04:56 | Sereno | 22 | 21 | 94 | 1011 | 10 | O/NO 11.1 | |
| Oggi h: 03:56 | Sereno | 23 | 21 | 88 | 1010 | 10 | SO 9.3 | |
| Oggi h: 02:56 | Sereno | 24 | 22 | 88 | 1010 | 10 | S/SO 13 | |
| Oggi h: 01:56 | Sereno | 24 | 21 | 83 | 1010 | 10 | S/SO 13 | |
| Oggi h: 00:56 | Sereno | 24 | 22 | 88 | 1009 | 10 | O 7.4 | |
| Ieri h: 23:56 | Sereno | 25 | 22 | 83 | 1009 | 10 | SO 9.3 | |
| Ieri h: 22:56 | Sereno | 26 | 22 | 78 | 1009 | 10 | S/SO 16.7 | |
| Ieri h: 21:56 | Sereno | 26 | 23 | 83 | 1009 | 10 | S/SO 20.3 | |
| Ieri h: 20:56 | Sereno | 27 | 23 | 78 | 1009 | 10 | S 14.8 | |
| Ieri h: 19:56 | Sereno | 28 | 23 | 74 | 1009 | 10 | S 9.3 | |
| Ieri h: 18:56 | Sereno | 31 | 22 | 58 | 1009 | 10 | S/SO 11.1 | |
| Ieri h: 17:56 | Sereno | 32 | 21 | 52 | 1008 | 10 | SO 18.5 | |
| Ieri h: 16:56 | Sereno | 33 | 19 | 43 | 1008 | 10 | S/SO 16.7 | |



